Time,TemperatureF,DewpointF,PressureIn,WindDirection,WindDirectionDegrees,WindSpeedMPH,WindSpeedGustMPH,Humidity,HourlyPrecipIn,Conditions,Clouds,dailyrainin,SoftwareType,DateUTC
2013-12-03 00:03:00,31.5,27.5,30.56,North,0,0.0,-999.0,85,0.00,,,-99.99,,2013-12-03 09:03:00,
2013-12-03 00:08:00,30.8,26.7,30.56,North,0,0.0,-999.0,84,0.00,,,-99.99,,2013-12-03 09:08:00,
2013-12-03 00:13:00,31.3,27.2,30.56,North,0,0.0,-999.0,84,0.00,,,-99.99,,2013-12-03 09:13:00,
2013-12-03 00:18:00,30.9,26.6,30.56,North,0,0.0,-999.0,83,0.00,,,-99.99,,2013-12-03 09:18:00,
2013-12-03 00:23:00,31.2,26.9,30.56,North,0,0.0,-999.0,83,0.00,,,-99.99,,2013-12-03 09:23:00,
2013-12-03 00:28:00,30.8,26.9,30.55,North,0,0.0,-999.0,85,0.00,,,-99.99,,2013-12-03 09:28:00,
2013-12-03 00:33:00,30.9,26.9,30.55,North,0,0.0,-999.0,84,0.00,,,-99.99,,2013-12-03 09:33:00,
2013-12-03 00:38:00,31.1,27.4,30.55,North,0,0.0,-999.0,85,0.00,,,-99.99,,2013-12-03 09:38:00,
2013-12-03 00:43:00,31.4,27.7,30.55,North,0,0.0,-999.0,86,0.00,,,-99.99,,2013-12-03 09:43:00,
2013-12-03 00:48:00,31.5,27.6,30.55,North,0,0.0,-999.0,85,0.00,,,-99.99,,2013-12-03 09:48:00,
2013-12-03 00:53:00,31.4,27.4,30.55,North,0,0.0,-999.0,84,0.00,,,-99.99,,2013-12-03 09:53:00,
2013-12-03 00:58:00,30.9,26.9,30.55,North,0,0.0,-999.0,84,0.00,,,-99.99,,2013-12-03 09:58:00,
2013-12-03 01:03:00,29.9,26.1,30.56,North,0,0.0,-999.0,85,0.00,,,-99.99,,2013-12-03 10:03:00,
2013-12-03 01:08:00,30.4,26.7,30.56,North,0,0.0,-999.0,85,0.00,,,-99.99,,2013-12-03 10:08:00,
2013-12-03 01:13:00,30.8,27.0,30.56,North,0,0.0,-999.0,85,0.00,,,-99.99,,2013-12-03 10:13:00,
2013-12-03 01:18:00,30.8,27.0,30.56,North,0,0.0,-999.0,85,0.00,,,-99.99,,2013-12-03 10:18:00,
2013-12-03 01:23:00,30.8,27.0,30.57,North,0,0.0,-999.0,85,0.00,,,-99.99,,2013-12-03 10:23:00,
2013-12-03 01:28:00,30.8,27.0,30.56,North,0,0.0,-999.0,85,0.00,,,-99.99,,2013-12-03 10:28:00,
2013-12-03 01:33:00,30.9,27.1,30.56,North,0,0.0,-999.0,85,0.00,,,-99.99,,2013-12-03 10:33:00,
2013-12-03 01:38:00,31.5,27.5,30.56,North,0,0.0,-999.0,84,0.00,,,-99.99,,2013-12-03 10:38:00,
2013-12-03 01:43:00,31.7,27.6,30.56,North,0,0.0,-999.0,84,0.00,,,-99.99,,2013-12-03 10:43:00,
2013-12-03 01:48:00,31.2,27.1,30.56,North,0,0.0,-999.0,84,0.00,,,-99.99,,2013-12-03 10:48:00,
2013-12-03 01:53:00,31.4,27.2,30.56,North,0,0.0,-999.0,84,0.00,,,-99.99,,2013-12-03 10:53:00,
2013-12-03 01:58:00,31.3,27.0,30.55,North,0,0.0,-999.0,83,0.00,,,-99.99,,2013-12-03 10:58:00,
2013-12-03 02:03:00,31.0,26.6,30.56,North,0,0.0,-999.0,83,0.00,,,-99.99,,2013-12-03 11:03:00,
2013-12-03 02:08:00,31.1,26.5,30.56,North,0,0.0,-999.0,83,0.00,,,-99.99,,2013-12-03 11:08:00,
2013-12-03 02:13:00,30.8,26.3,30.58,North,0,0.0,-999.0,83,0.00,,,-99.99,,2013-12-03 11:13:00,
2013-12-03 02:18:00,31.1,26.7,30.55,North,0,0.0,-999.0,83,0.00,,,-99.99,,2013-12-03 11:18:00,
2013-12-03 02:23:00,31.6,27.0,30.55,North,0,0.0,-999.0,83,0.00,,,-99.99,,2013-12-03 11:23:00,
2013-12-03 02:28:00,31.0,26.6,30.55,North,0,0.0,-999.0,83,0.00,,,-99.99,,2013-12-03 11:28:00,
2013-12-03 02:33:00,31.2,26.8,30.54,North,0,0.0,-999.0,83,0.00,,,-99.99,,2013-12-03 11:33:00,
2013-12-03 02:38:00,31.5,27.2,30.55,North,0,0.0,-999.0,83,0.00,,,-99.99,,2013-12-03 11:38:00,
2013-12-03 02:43:00,31.7,27.3,30.54,North,0,0.0,-999.0,83,0.00,,,-99.99,,2013-12-03 11:43:00,
2013-12-03 02:48:00,31.6,27.2,30.54,North,0,0.0,-999.0,83,0.00,,,-99.99,,2013-12-03 11:48:00,
2013-12-03 02:53:00,31.6,27.2,30.55,North,0,0.0,-999.0,83,0.00,,,-99.99,,2013-12-03 11:53:00,
2013-12-03 02:58:00,31.5,27.0,30.54,North,0,0.0,-999.0,83,0.00,,,-99.99,,2013-12-03 11:58:00,
2013-12-03 03:03:00,31.9,27.3,30.54,North,0,0.0,-999.0,82,0.00,,,-99.99,,2013-12-03 12:03:00,
2013-12-03 03:08:00,31.4,26.8,30.55,North,0,0.0,-999.0,82,0.00,,,-99.99,,2013-12-03 12:08:00,
2013-12-03 03:13:00,32.2,27.5,30.54,North,0,0.0,-999.0,82,0.00,,,-99.99,,2013-12-03 12:13:00,
2013-12-03 03:18:00,31.9,27.2,30.54,North,0,0.0,-999.0,82,0.00,,,-99.99,,2013-12-03 12:18:00,
2013-12-03 03:23:00,31.7,27.0,30.54,North,0,0.0,-999.0,82,0.00,,,-99.99,,2013-12-03 12:23:00,
2013-12-03 03:28:00,32.0,27.1,30.54,North,0,0.0,-999.0,82,0.00,,,-99.99,,2013-12-03 12:28:00,
2013-12-03 03:33:00,32.4,27.6,30.53,North,0,0.0,-999.0,82,0.00,,,-99.99,,2013-12-03 12:33:00,
2013-12-03 03:38:00,32.8,27.8,30.54,North,0,0.0,-999.0,81,0.00,,,-99.99,,2013-12-03 12:38:00,
2013-12-03 03:43:00,32.8,27.9,30.54,North,0,0.0,-999.0,81,0.00,,,-99.99,,2013-12-03 12:43:00,
2013-12-03 03:48:00,33.3,28.1,30.53,North,0,0.0,-999.0,81,0.00,,,-99.99,,2013-12-03 12:48:00,
2013-12-03 03:53:00,33.5,28.1,30.53,North,0,0.0,-999.0,80,0.00,,,-99.99,,2013-12-03 12:53:00,
2013-12-03 03:58:00,33.5,27.6,30.54,North,0,0.0,-999.0,78,0.00,,,-99.99,,2013-12-03 12:58:00,
2013-12-03 04:03:00,34.2,28.3,30.54,North,0,0.0,-999.0,78,0.00,,,-99.99,,2013-12-03 13:03:00,
2013-12-03 04:08:00,33.7,27.8,30.54,North,0,0.0,-999.0,78,0.00,,,-99.99,,2013-12-03 13:08:00,
2013-12-03 04:13:00,33.7,28.0,30.54,North,0,0.0,-999.0,79,0.00,,,-99.99,,2013-12-03 13:13:00,
2013-12-03 04:18:00,33.2,27.8,30.54,North,0,0.0,-999.0,79,0.00,,,-99.99,,2013-12-03 13:18:00,
2013-12-03 04:23:00,34.3,28.5,30.55,North,0,0.0,-999.0,79,0.00,,,-99.99,,2013-12-03 13:23:00,
2013-12-03 04:28:00,34.7,28.4,30.54,North,0,0.0,-999.0,77,0.00,,,-99.99,,2013-12-03 13:28:00,
2013-12-03 04:33:00,34.6,28.0,30.54,North,0,0.0,-999.0,76,0.00,,,-99.99,,2013-12-03 13:33:00,
2013-12-03 04:38:00,34.5,27.7,30.54,North,0,0.0,-999.0,75,0.00,,,-99.99,,2013-12-03 13:38:00,
2013-12-03 04:43:00,34.3,27.4,30.54,North,0,0.0,-999.0,75,0.00,,,-99.99,,2013-12-03 13:43:00,
2013-12-03 04:48:00,34.7,28.0,30.54,North,0,0.0,-999.0,76,0.00,,,-99.99,,2013-12-03 13:48:00,
2013-12-03 04:53:00,34.2,27.4,30.53,North,0,0.0,-999.0,76,0.00,,,-99.99,,2013-12-03 13:53:00,
2013-12-03 04:58:00,35.0,27.9,30.53,North,0,0.0,-999.0,75,0.00,,,-99.99,,2013-12-03 13:58:00,
2013-12-03 05:03:00,35.2,28.0,30.53,North,0,0.0,-999.0,74,0.00,,,-99.99,,2013-12-03 14:03:00,
2013-12-03 05:08:00,34.9,27.7,30.54,North,0,0.0,-999.0,74,0.00,,,-99.99,,2013-12-03 14:08:00,
2013-12-03 05:13:00,35.5,28.2,30.53,North,0,0.0,-999.0,74,0.00,,,-99.99,,2013-12-03 14:13:00,
2013-12-03 05:18:00,35.5,28.3,30.52,North,0,0.0,-999.0,74,0.00,,,-99.99,,2013-12-03 14:18:00,
2013-12-03 05:23:00,36.1,28.7,30.54,North,0,0.0,-999.0,74,0.00,,,-99.99,,2013-12-03 14:23:00,
2013-12-03 05:28:00,35.7,28.1,30.53,North,0,0.0,-999.0,73,0.00,,,-99.99,,2013-12-03 14:28:00,
2013-12-03 05:33:00,35.8,28.0,30.52,North,0,0.0,-999.0,72,0.00,,,-99.99,,2013-12-03 14:33:00,
2013-12-03 05:38:00,35.8,27.7,30.53,North,0,0.0,-999.0,72,0.00,,,-99.99,,2013-12-03 14:38:00,
2013-12-03 05:43:00,36.2,28.1,30.52,North,0,0.0,-999.0,71,0.00,,,-99.99,,2013-12-03 14:43:00,
2013-12-03 05:48:00,35.6,27.5,30.52,North,0,0.0,-999.0,72,0.00,,,-99.99,,2013-12-03 14:48:00,
2013-12-03 05:53:00,36.0,27.4,30.52,North,0,0.0,-999.0,70,0.00,,,-99.99,,2013-12-03 14:53:00,
2013-12-03 05:58:00,36.6,27.5,30.52,North,0,0.0,-999.0,69,0.00,,,-99.99,,2013-12-03 14:58:00,
2013-12-03 06:03:00,36.1,27.4,30.52,North,0,0.0,-999.0,70,0.00,,,-99.99,,2013-12-03 15:03:00,
2013-12-03 06:08:00,36.4,27.7,30.52,North,0,0.0,-999.0,70,0.00,,,-99.99,,2013-12-03 15:08:00,
2013-12-03 06:13:00,36.3,28.0,30.52,North,0,0.0,-999.0,71,0.00,,,-99.99,,2013-12-03 15:13:00,
2013-12-03 06:18:00,36.2,28.1,30.52,North,0,0.0,-999.0,72,0.00,,,-99.99,,2013-12-03 15:18:00,
2013-12-03 06:23:00,35.8,27.5,30.52,North,0,0.0,-999.0,71,0.00,,,-99.99,,2013-12-03 15:23:00,
2013-12-03 06:28:00,36.0,27.3,30.52,North,0,0.0,-999.0,70,0.00,,,-99.99,,2013-12-03 15:28:00,
2013-12-03 06:33:00,36.3,27.8,30.52,North,0,0.0,-999.0,70,0.00,,,-99.99,,2013-12-03 15:33:00,
2013-12-03 06:38:00,36.4,28.0,30.52,North,0,0.0,-999.0,71,0.00,,,-99.99,,2013-12-03 15:38:00,
2013-12-03 06:43:00,36.5,28.1,30.52,North,0,0.0,-999.0,71,0.00,,,-99.99,,2013-12-03 15:43:00,
2013-12-03 06:48:00,36.2,27.9,30.52,North,0,0.0,-999.0,71,0.00,,,-99.99,,2013-12-03 15:48:00,
2013-12-03 06:53:00,36.0,27.7,30.53,North,0,0.0,-999.0,71,0.00,,,-99.99,,2013-12-03 15:53:00,
2013-12-03 06:58:00,36.2,28.0,30.52,North,0,0.0,-999.0,71,0.00,,,-99.99,,2013-12-03 15:58:00,
2013-12-03 07:03:00,36.0,28.2,30.52,North,0,0.0,-999.0,73,0.00,,,-99.99,,2013-12-03 16:03:00,
2013-12-03 07:08:00,36.6,28.2,30.52,North,0,0.0,-999.0,71,0.00,,,-99.99,,2013-12-03 16:08:00,
2013-12-03 07:13:00,36.4,27.9,30.52,North,0,0.0,-999.0,70,0.00,,,-99.99,,2013-12-03 16:13:00,
2013-12-03 07:18:00,36.8,28.3,30.52,North,0,0.0,-999.0,71,0.00,,,-99.99,,2013-12-03 16:18:00,
2013-12-03 07:23:00,36.7,28.3,30.52,North,0,0.0,-999.0,71,0.00,,,-99.99,,2013-12-03 16:23:00,
2013-12-03 07:28:00,36.3,27.9,30.51,North,0,0.0,-999.0,71,0.00,,,-99.99,,2013-12-03 16:28:00,
2013-12-03 07:33:00,36.6,27.8,30.51,North,0,0.0,-999.0,70,0.00,,,-99.99,,2013-12-03 16:33:00,
2013-12-03 07:38:00,36.6,27.9,30.51,North,0,0.0,-999.0,70,0.00,,,-99.99,,2013-12-03 16:38:00,
2013-12-03 07:43:00,36.0,27.2,30.51,North,0,0.0,-999.0,70,0.00,,,-99.99,,2013-12-03 16:43:00,
2013-12-03 07:48:00,36.7,28.1,30.51,North,0,0.0,-999.0,70,0.00,,,-99.99,,2013-12-03 16:48:00,
2013-12-03 07:53:00,36.5,28.0,30.51,North,0,0.0,-999.0,70,0.00,,,-99.99,,2013-12-03 16:53:00,
2013-12-03 07:59:00,36.6,28.4,30.51,North,0,0.0,-999.0,71,0.00,,,-99.99,,2013-12-03 16:59:00,
2013-12-03 08:04:00,36.7,28.4,30.51,North,0,0.0,-999.0,71,0.00,,,-99.99,,2013-12-03 17:04:00,
2013-12-03 08:09:00,36.6,28.4,30.51,North,0,0.0,-999.0,71,0.00,,,-99.99,,2013-12-03 17:09:00,
2013-12-03 08:14:00,36.3,28.0,30.51,North,0,0.0,-999.0,71,0.00,,,-99.99,,2013-12-03 17:14:00,
2013-12-03 08:19:00,36.5,28.5,30.52,North,0,0.0,-999.0,72,0.00,,,-99.99,,2013-12-03 17:19:00,
2013-12-03 08:24:00,36.5,28.8,30.52,North,0,0.0,-999.0,73,0.00,,,-99.99,,2013-12-03 17:24:00,
2013-12-03 08:29:00,36.5,28.9,30.51,North,0,0.0,-999.0,73,0.00,,,-99.99,,2013-12-03 17:29:00,
2013-12-03 08:34:00,36.2,28.8,30.51,North,0,0.0,-999.0,74,0.00,,,-99.99,,2013-12-03 17:34:00,
2013-12-03 08:39:00,35.8,28.5,30.52,North,0,0.0,-999.0,74,0.00,,,-99.99,,2013-12-03 17:39:00,
2013-12-03 08:44:00,36.1,29.1,30.51,North,0,0.0,-999.0,75,0.00,,,-99.99,,2013-12-03 17:44:00,
2013-12-03 08:49:00,36.0,29.0,30.51,North,0,0.0,-999.0,75,0.00,,,-99.99,,2013-12-03 17:49:00,
2013-12-03 08:54:00,36.0,29.1,30.52,North,0,0.0,-999.0,75,0.00,,,-99.99,,2013-12-03 17:54:00,
2013-12-03 08:59:00,36.2,29.2,30.53,North,0,0.0,-999.0,75,0.00,,,-99.99,,2013-12-03 17:59:00,
2013-12-03 09:04:00,35.4,28.8,30.53,North,0,0.0,-999.0,76,0.00,,,-99.99,,2013-12-03 18:04:00,
2013-12-03 09:09:00,35.9,29.5,30.51,North,0,0.0,-999.0,77,0.00,,,-99.99,,2013-12-03 18:09:00,
2013-12-03 09:14:00,35.7,29.2,30.51,North,0,0.0,-999.0,76,0.00,,,-99.99,,2013-12-03 18:14:00,
2013-12-03 09:19:00,35.5,29.3,30.52,North,0,0.0,-999.0,77,0.00,,,-99.99,,2013-12-03 18:19:00,
2013-12-03 09:24:00,35.7,29.5,30.52,North,0,0.0,-999.0,77,0.00,,,-99.99,,2013-12-03 18:24:00,
2013-12-03 09:29:00,35.3,29.2,30.52,North,0,0.0,-999.0,78,0.00,,,-99.99,,2013-12-03 18:29:00,
2013-12-03 09:34:00,35.8,29.7,30.51,North,0,0.0,-999.0,78,0.00,,,-99.99,,2013-12-03 18:34:00,
2013-12-03 09:39:00,36.5,30.4,30.51,North,0,0.0,-999.0,78,0.00,,,-99.99,,2013-12-03 18:39:00,
2013-12-03 09:44:00,36.0,29.8,30.51,North,0,0.0,-999.0,78,0.00,,,-99.99,,2013-12-03 18:44:00,
2013-12-03 09:49:00,35.6,29.6,30.51,North,0,0.0,-999.0,78,0.00,,,-99.99,,2013-12-03 18:49:00,
2013-12-03 09:54:00,35.8,29.9,30.51,North,0,0.0,-999.0,78,0.00,,,-99.99,,2013-12-03 18:54:00,
2013-12-03 09:59:00,35.9,30.0,30.52,North,0,0.0,-999.0,78,0.00,,,-99.99,,2013-12-03 18:59:00,
2013-12-03 10:04:00,36.3,30.6,30.52,North,0,0.0,-999.0,79,0.00,,,-99.99,,2013-12-03 19:04:00,
2013-12-03 10:09:00,35.7,30.0,30.51,North,0,0.0,-999.0,79,0.00,,,-99.99,,2013-12-03 19:09:00,
2013-12-03 10:14:00,36.2,30.6,30.51,North,0,0.0,-999.0,79,0.00,,,-99.99,,2013-12-03 19:14:00,
2013-12-03 10:19:00,36.1,30.6,30.52,North,0,0.0,-999.0,80,0.00,,,-99.99,,2013-12-03 19:19:00,
2013-12-03 10:24:00,36.1,30.4,30.51,North,0,0.0,-999.0,79,0.00,,,-99.99,,2013-12-03 19:24:00,
2013-12-03 10:29:00,36.3,30.7,30.52,North,0,0.0,-999.0,79,0.00,,,-99.99,,2013-12-03 19:29:00,
2013-12-03 10:34:00,36.3,30.6,30.52,North,0,0.0,-999.0,79,0.00,,,-99.99,,2013-12-03 19:34:00,
2013-12-03 10:39:00,36.1,30.3,30.51,North,0,0.0,-999.0,79,0.00,,,-99.99,,2013-12-03 19:39:00,
2013-12-03 10:44:00,36.6,30.9,30.53,North,0,0.0,-999.0,79,0.00,,,-99.99,,2013-12-03 19:44:00,
2013-12-03 10:49:00,36.6,30.9,30.53,North,0,0.0,-999.0,79,0.00,,,-99.99,,2013-12-03 19:49:00,
2013-12-03 10:54:00,36.7,31.0,30.51,North,0,0.0,-999.0,79,0.00,,,-99.99,,2013-12-03 19:54:00,
2013-12-03 10:59:00,37.2,31.6,30.53,North,0,0.0,-999.0,80,0.00,,,-99.99,,2013-12-03 19:59:00,
2013-12-03 11:04:00,37.2,31.4,30.52,North,0,0.0,-999.0,79,0.00,,,-99.99,,2013-12-03 20:04:00,
2013-12-03 11:09:00,37.2,31.1,30.51,North,0,0.0,-999.0,78,0.00,,,-99.99,,2013-12-03 20:09:00,
2013-12-03 11:14:00,36.7,30.5,30.53,North,0,0.0,-999.0,78,0.00,,,-99.99,,2013-12-03 20:14:00,
2013-12-03 11:19:00,37.0,30.7,30.52,North,0,0.0,-999.0,77,0.00,,,-99.99,,2013-12-03 20:19:00,
2013-12-03 11:24:00,36.4,30.2,30.51,North,0,0.0,-999.0,78,0.00,,,-99.99,,2013-12-03 20:24:00,
2013-12-03 11:29:00,36.9,30.9,30.53,North,0,0.0,-999.0,78,0.00,,,-99.99,,2013-12-03 20:29:00,
2013-12-03 11:34:00,37.2,30.9,30.51,North,0,0.0,-999.0,77,0.00,,,-99.99,,2013-12-03 20:34:00,
2013-12-03 11:39:00,36.6,30.3,30.50,North,0,0.0,-999.0,77,0.00,,,-99.99,,2013-12-03 20:39:00,
2013-12-03 11:44:00,37.2,30.8,30.52,North,0,0.0,-999.0,77,0.00,,,-99.99,,2013-12-03 20:44:00,
2013-12-03 11:49:00,36.8,30.5,30.51,North,0,0.0,-999.0,77,0.00,,,-99.99,,2013-12-03 20:49:00,
2013-12-03 11:54:00,37.3,31.0,30.51,North,0,0.0,-999.0,77,0.00,,,-99.99,,2013-12-03 20:54:00,
2013-12-03 11:59:00,37.4,31.1,30.51,North,0,0.0,-999.0,77,0.00,,,-99.99,,2013-12-03 20:59:00,
2013-12-03 12:04:00,37.4,31.2,30.51,North,0,0.0,-999.0,78,0.00,,,-99.99,,2013-12-03 21:04:00,
2013-12-03 12:09:00,37.2,31.2,30.51,North,0,0.0,-999.0,78,0.00,,,-99.99,,2013-12-03 21:09:00,
2013-12-03 12:14:00,37.2,31.6,30.50,North,0,0.0,-999.0,79,0.00,,,-99.99,,2013-12-03 21:14:00,
2013-12-03 12:19:00,36.8,31.2,30.50,North,0,0.0,-999.0,79,0.00,,,-99.99,,2013-12-03 21:19:00,
2013-12-03 12:24:00,37.5,31.5,30.50,North,0,0.0,-999.0,78,0.00,,,-99.99,,2013-12-03 21:24:00,
2013-12-03 12:29:00,37.4,31.6,30.51,North,0,0.0,-999.0,79,0.00,,,-99.99,,2013-12-03 21:29:00,
2013-12-03 12:34:00,37.4,31.5,30.49,North,0,0.0,-999.0,79,0.00,,,-99.99,,2013-12-03 21:34:00,
2013-12-03 12:39:00,37.3,31.4,30.50,North,0,0.0,-999.0,78,0.00,,,-99.99,,2013-12-03 21:39:00,
2013-12-03 12:44:00,37.5,31.5,30.51,North,0,0.0,-999.0,78,0.00,,,-99.99,,2013-12-03 21:44:00,
2013-12-03 12:49:00,37.6,31.6,30.49,North,0,0.0,-999.0,78,0.00,,,-99.99,,2013-12-03 21:49:00,
2013-12-03 12:54:00,37.5,31.5,30.49,North,0,0.0,-999.0,78,0.00,,,-99.99,,2013-12-03 21:54:00,
2013-12-03 12:59:00,37.4,31.6,30.49,North,0,0.0,-999.0,79,0.00,,,-99.99,,2013-12-03 21:59:00,
2013-12-03 13:04:00,37.1,31.3,30.49,North,0,0.0,-999.0,79,0.00,,,-99.99,,2013-12-03 22:04:00,
2013-12-03 13:09:00,37.1,31.1,30.49,North,0,0.0,-999.0,78,0.00,,,-99.99,,2013-12-03 22:09:00,
2013-12-03 13:14:00,37.7,31.6,30.48,North,0,0.0,-999.0,78,0.00,,,-99.99,,2013-12-03 22:14:00,
2013-12-03 13:19:00,37.7,31.5,30.48,North,0,0.0,-999.0,78,0.00,,,-99.99,,2013-12-03 22:19:00,
2013-12-03 13:24:00,37.7,31.4,30.48,North,0,0.0,-999.0,77,0.00,,,-99.99,,2013-12-03 22:24:00,
2013-12-03 13:29:00,38.1,31.7,30.48,North,0,0.0,-999.0,77,0.00,,,-99.99,,2013-12-03 22:29:00,
2013-12-03 13:34:00,38.0,31.5,30.48,North,0,0.0,-999.0,77,0.00,,,-99.99,,2013-12-03 22:34:00,
2013-12-03 13:39:00,37.8,31.5,30.47,North,0,0.0,-999.0,77,0.00,,,-99.99,,2013-12-03 22:39:00,
2013-12-03 13:44:00,37.6,31.2,30.47,North,0,0.0,-999.0,77,0.00,,,-99.99,,2013-12-03 22:44:00,
2013-12-03 13:49:00,37.6,31.1,30.47,North,0,0.0,-999.0,77,0.00,,,-99.99,,2013-12-03 22:49:00,
2013-12-03 13:54:00,38.2,31.8,30.48,North,0,0.0,-999.0,77,0.00,,,-99.99,,2013-12-03 22:54:00,
2013-12-03 13:59:00,38.1,31.9,30.47,North,0,0.0,-999.0,78,0.00,,,-99.99,,2013-12-03 22:59:00,
2013-12-03 14:04:00,37.7,31.5,30.47,North,0,0.0,-999.0,78,0.00,,,-99.99,,2013-12-03 23:04:00,
2013-12-03 14:09:00,37.6,31.5,30.46,North,0,0.0,-999.0,78,0.00,,,-99.99,,2013-12-03 23:09:00,
2013-12-03 14:14:00,38.1,31.9,30.47,North,0,0.0,-999.0,78,0.00,,,-99.99,,2013-12-03 23:14:00,
2013-12-03 14:19:00,38.1,31.8,30.47,North,0,0.0,-999.0,77,0.00,,,-99.99,,2013-12-03 23:19:00,
2013-12-03 14:24:00,37.9,31.6,30.47,North,0,0.0,-999.0,77,0.00,,,-99.99,,2013-12-03 23:24:00,
2013-12-03 14:29:00,37.9,31.7,30.46,North,0,0.0,-999.0,77,0.00,,,-99.99,,2013-12-03 23:29:00,
2013-12-03 14:34:00,37.4,31.0,30.45,North,0,0.0,-999.0,77,0.00,,,-99.99,,2013-12-03 23:34:00,
2013-12-03 14:39:00,37.4,31.4,30.46,North,0,0.0,-999.0,78,0.00,,,-99.99,,2013-12-03 23:39:00,
2013-12-03 14:44:00,38.1,32.0,30.46,North,0,0.0,-999.0,78,0.00,,,-99.99,,2013-12-03 23:44:00,
2013-12-03 14:49:00,38.2,32.6,30.46,North,0,0.0,-999.0,79,0.00,,,-99.99,,2013-12-03 23:49:00,
2013-12-03 14:54:00,37.6,32.2,30.44,North,0,0.0,-999.0,80,0.00,,,-99.99,,2013-12-03 23:54:00,
2013-12-03 14:59:00,38.1,32.8,30.44,North,0,0.0,-999.0,80,0.00,,,-99.99,,2013-12-03 23:59:00,
2013-12-03 15:04:00,37.7,32.2,30.45,North,0,0.0,-999.0,80,0.00,,,-99.99,,2013-12-04 00:04:00,
2013-12-03 15:09:00,37.3,31.8,30.45,North,0,0.0,-999.0,80,0.00,,,-99.99,,2013-12-04 00:09:00,
2013-12-03 15:14:00,37.3,31.7,30.44,North,0,0.0,-999.0,79,0.00,,,-99.99,,2013-12-04 00:14:00,
2013-12-03 15:19:00,38.1,32.6,30.44,North,0,0.0,-999.0,80,0.00,,,-99.99,,2013-12-04 00:19:00,
2013-12-03 15:24:00,37.5,32.2,30.44,North,0,0.0,-999.0,80,0.00,,,-99.99,,2013-12-04 00:24:00,
2013-12-03 15:29:00,37.5,32.3,30.44,North,0,0.0,-999.0,81,0.00,,,-99.99,,2013-12-04 00:29:00,
2013-12-03 15:34:00,37.6,32.5,30.43,North,0,0.0,-999.0,81,0.00,,,-99.99,,2013-12-04 00:34:00,
2013-12-03 15:39:00,37.3,32.2,30.44,North,0,0.0,-999.0,81,0.00,,,-99.99,,2013-12-04 00:39:00,
2013-12-03 15:44:00,36.8,31.9,30.44,North,0,0.0,-999.0,82,0.00,,,-99.99,,2013-12-04 00:44:00,
2013-12-03 15:49:00,37.3,32.5,30.44,North,0,0.0,-999.0,82,0.00,,,-99.99,,2013-12-04 00:49:00,
2013-12-03 15:54:00,37.2,32.4,30.43,North,0,0.0,-999.0,82,0.00,,,-99.99,,2013-12-04 00:54:00,
2013-12-03 15:59:00,37.3,32.5,30.43,North,0,0.0,-999.0,82,0.00,,,-99.99,,2013-12-04 00:59:00,
2013-12-03 16:04:00,36.4,31.9,30.43,North,0,0.0,-999.0,83,0.00,,,-99.99,,2013-12-04 01:04:00,
2013-12-03 16:09:00,37.1,32.5,30.43,North,0,0.0,-999.0,83,0.00,,,-99.99,,2013-12-04 01:09:00,
2013-12-03 16:14:00,36.8,32.4,30.44,North,0,0.0,-999.0,83,0.00,,,-99.99,,2013-12-04 01:14:00,
2013-12-03 16:19:00,35.9,31.5,30.42,North,0,0.0,-999.0,83,0.00,,,-99.99,,2013-12-04 01:19:00,
2013-12-03 16:24:00,37.0,32.6,30.43,North,0,0.0,-999.0,84,0.00,,,-99.99,,2013-12-04 01:24:00,
2013-12-03 16:29:00,36.9,32.6,30.42,North,0,0.0,-999.0,84,0.00,,,-99.99,,2013-12-04 01:29:00,
2013-12-03 16:34:00,36.6,32.2,30.42,North,0,0.0,-999.0,83,0.00,,,-99.99,,2013-12-04 01:34:00,
2013-12-03 16:39:00,36.7,32.3,30.43,North,0,0.0,-999.0,83,0.00,,,-99.99,,2013-12-04 01:39:00,
2013-12-03 16:44:00,36.8,32.5,30.41,North,0,0.0,-999.0,84,0.00,,,-99.99,,2013-12-04 01:44:00,
2013-12-03 16:49:00,37.0,32.7,30.42,North,0,0.0,-999.0,84,0.00,,,-99.99,,2013-12-04 01:49:00,
2013-12-03 16:54:00,37.4,33.0,30.43,North,0,0.0,-999.0,84,0.00,,,-99.99,,2013-12-04 01:54:00,
2013-12-03 16:59:00,36.5,32.0,30.42,North,0,0.0,-999.0,83,0.00,,,-99.99,,2013-12-04 01:59:00,
2013-12-03 17:04:00,37.2,32.5,30.42,North,0,0.0,-999.0,82,0.00,,,-99.99,,2013-12-04 02:04:00,
2013-12-03 17:09:00,36.8,32.1,30.41,North,0,0.0,-999.0,82,0.00,,,-99.99,,2013-12-04 02:09:00,
2013-12-03 17:14:00,37.2,32.2,30.42,North,0,0.0,-999.0,81,0.00,,,-99.99,,2013-12-04 02:14:00,
2013-12-03 17:19:00,37.2,32.2,30.42,North,0,0.0,-999.0,81,0.00,,,-99.99,,2013-12-04 02:19:00,
2013-12-03 17:24:00,37.6,32.7,30.41,North,0,0.0,-999.0,82,0.00,,,-99.99,,2013-12-04 02:24:00,
2013-12-03 17:29:00,37.3,32.5,30.41,North,0,0.0,-999.0,82,0.00,,,-99.99,,2013-12-04 02:29:00,
2013-12-03 17:34:00,36.9,32.0,30.41,North,0,0.0,-999.0,82,0.00,,,-99.99,,2013-12-04 02:34:00,
2013-12-03 17:39:00,37.1,32.3,30.41,North,0,0.0,-999.0,82,0.00,,,-99.99,,2013-12-04 02:39:00,
2013-12-03 17:44:00,37.2,32.3,30.41,North,0,0.0,-999.0,82,0.00,,,-99.99,,2013-12-04 02:44:00,
2013-12-03 17:49:00,37.5,32.6,30.40,North,0,0.0,-999.0,82,0.00,,,-99.99,,2013-12-04 02:49:00,
2013-12-03 17:54:00,37.1,32.2,30.40,North,0,0.0,-999.0,82,0.00,,,-99.99,,2013-12-04 02:54:00,
2013-12-03 17:59:00,37.4,32.3,30.41,North,0,0.0,-999.0,81,0.00,,,-99.99,,2013-12-04 02:59:00,
2013-12-03 18:04:00,37.4,32.4,30.41,North,0,0.0,-999.0,81,0.00,,,-99.99,,2013-12-04 03:04:00,
2013-12-03 18:09:00,37.7,32.6,30.39,North,0,0.0,-999.0,81,0.00,,,-99.99,,2013-12-04 03:09:00,
2013-12-03 18:14:00,37.6,32.5,30.40,North,0,0.0,-999.0,81,0.00,,,-99.99,,2013-12-04 03:14:00,
2013-12-03 18:19:00,37.5,32.4,30.39,North,0,0.0,-999.0,81,0.00,,,-99.99,,2013-12-04 03:19:00,
2013-12-03 18:24:00,37.7,32.6,30.40,North,0,0.0,-999.0,81,0.00,,,-99.99,,2013-12-04 03:24:00,
2013-12-03 18:29:00,37.3,32.5,30.39,North,0,0.0,-999.0,82,0.00,,,-99.99,,2013-12-04 03:29:00,
2013-12-03 18:34:00,37.2,32.7,30.39,North,0,0.0,-999.0,83,0.00,,,-99.99,,2013-12-04 03:34:00,
2013-12-03 18:39:00,37.5,33.2,30.40,North,0,0.0,-999.0,84,0.00,,,-99.99,,2013-12-04 03:39:00,
2013-12-03 18:44:00,37.3,33.3,30.40,North,0,0.0,-999.0,85,0.00,,,-99.99,,2013-12-04 03:44:00,
2013-12-03 18:49:00,37.0,33.3,30.40,North,0,0.0,-999.0,86,0.00,,,-99.99,,2013-12-04 03:49:00,
2013-12-03 18:54:00,36.8,33.2,30.40,North,0,0.0,-999.0,86,0.00,,,-99.99,,2013-12-04 03:54:00,
2013-12-03 18:59:00,36.9,33.5,30.40,North,0,0.0,-999.0,87,0.00,,,-99.99,,2013-12-04 03:59:00,
2013-12-03 19:01:00,36.8,34.1,30.38,North,0,0.0,-999.0,89,0.00,,,-99.99,,2013-12-04 04:01:00,
2013-12-03 19:02:00,36.2,33.5,30.38,North,0,0.0,-999.0,89,0.00,,,-99.99,,2013-12-04 04:02:00,
2013-12-03 19:03:00,36.3,33.6,30.38,North,0,0.0,-999.0,89,0.00,,,-99.99,,2013-12-04 04:03:00,
2013-12-03 19:04:00,36.7,33.5,30.40,North,0,0.0,-999.0,88,0.00,,,-99.99,,2013-12-04 04:04:00,
2013-12-03 19:05:00,36.4,33.8,30.39,North,0,0.0,-999.0,90,0.00,,,-99.99,,2013-12-04 04:05:00,
2013-12-03 19:06:00,36.1,33.5,30.39,North,0,0.0,-999.0,89,0.00,,,-99.99,,2013-12-04 04:06:00,
2013-12-03 19:07:00,35.7,33.1,30.39,North,0,0.0,-999.0,90,0.00,,,-99.99,,2013-12-04 04:07:00,
2013-12-03 19:08:00,36.3,33.7,30.39,North,0,0.0,-999.0,89,0.00,,,-99.99,,2013-12-04 04:08:00,
2013-12-03 19:09:00,36.3,33.3,30.40,North,0,0.0,-999.0,88,0.00,,,-99.99,,2013-12-04 04:09:00,
2013-12-03 19:10:00,36.5,33.8,30.38,North,0,0.0,-999.0,89,0.00,,,-99.99,,2013-12-04 04:10:00,
2013-12-03 19:11:00,36.8,34.1,30.38,North,0,0.0,-999.0,89,0.00,,,-99.99,,2013-12-04 04:11:00,
2013-12-03 19:12:00,36.5,33.8,30.38,North,0,0.0,-999.0,90,0.00,,,-99.99,,2013-12-04 04:12:00,
2013-12-03 19:13:00,36.5,33.9,30.38,North,0,0.0,-999.0,90,0.00,,,-99.99,,2013-12-04 04:13:00,
2013-12-03 19:14:00,36.4,33.5,30.40,North,0,0.0,-999.0,89,0.00,,,-99.99,,2013-12-04 04:14:00,
2013-12-03 19:15:00,36.2,33.6,30.39,North,0,0.0,-999.0,90,0.00,,,-99.99,,2013-12-04 04:15:00,
2013-12-03 19:16:00,36.7,34.1,30.39,North,0,0.0,-999.0,90,0.00,,,-99.99,,2013-12-04 04:16:00,
2013-12-03 19:17:00,36.7,34.0,30.39,North,0,0.0,-999.0,90,0.00,,,-99.99,,2013-12-04 04:17:00,
2013-12-03 19:18:00,36.7,34.1,30.39,North,0,0.0,-999.0,90,0.00,,,-99.99,,2013-12-04 04:18:00,
2013-12-03 19:19:00,36.8,34.0,30.40,North,0,0.0,-999.0,89,0.00,,,-99.99,,2013-12-04 04:19:00,
2013-12-03 19:20:00,36.9,34.4,30.38,North,0,0.0,-999.0,90,0.00,,,-99.99,,2013-12-04 04:20:00,
2013-12-03 19:21:00,36.9,34.4,30.38,North,0,0.0,-999.0,90,0.00,,,-99.99,,2013-12-04 04:21:00,
2013-12-03 19:22:00,36.7,34.1,30.38,North,0,0.0,-999.0,90,0.00,,,-99.99,,2013-12-04 04:22:00,
2013-12-03 19:23:00,36.6,34.0,30.38,North,0,0.0,-999.0,90,0.00,,,-99.99,,2013-12-04 04:23:00,
2013-12-03 19:24:00,36.8,33.9,30.40,North,0,0.0,-999.0,89,0.00,,,-99.99,,2013-12-04 04:24:00,
2013-12-03 19:25:00,36.5,34.0,30.38,North,0,0.0,-999.0,90,0.00,,,-99.99,,2013-12-04 04:25:00,
2013-12-03 19:26:00,36.6,34.1,30.38,North,0,0.0,-999.0,90,0.00,,,-99.99,,2013-12-04 04:26:00,
2013-12-03 19:27:00,36.4,33.9,30.38,North,0,0.0,-999.0,90,0.00,,,-99.99,,2013-12-04 04:27:00,
2013-12-03 19:28:00,36.7,34.2,30.38,North,0,0.0,-999.0,90,0.00,,,-99.99,,2013-12-04 04:28:00,
2013-12-03 19:29:00,36.7,33.9,30.38,North,0,0.0,-999.0,89,0.00,,,-99.99,,2013-12-04 04:29:00,
2013-12-03 19:30:00,36.9,34.4,30.38,North,0,0.0,-999.0,90,0.00,,,-99.99,,2013-12-04 04:30:00,
2013-12-03 19:31:00,36.8,34.3,30.38,North,0,0.0,-999.0,90,0.00,,,-99.99,,2013-12-04 04:31:00,
2013-12-03 19:32:00,37.2,34.7,30.38,North,0,0.0,-999.0,90,0.00,,,-99.99,,2013-12-04 04:32:00,
2013-12-03 19:33:00,36.2,33.7,30.38,North,0,0.0,-999.0,90,0.00,,,-99.99,,2013-12-04 04:33:00,
2013-12-03 19:34:00,36.7,34.0,30.39,North,0,0.0,-999.0,89,0.00,,,-99.99,,2013-12-04 04:34:00,
2013-12-03 19:35:00,36.8,34.4,30.38,North,0,0.0,-999.0,90,0.00,,,-99.99,,2013-12-04 04:35:00,
2013-12-03 19:36:00,36.8,34.4,30.38,North,0,0.0,-999.0,90,0.00,,,-99.99,,2013-12-04 04:36:00,
2013-12-03 19:37:00,37.0,34.6,30.38,North,0,0.0,-999.0,90,0.00,,,-99.99,,2013-12-04 04:37:00,
2013-12-03 19:38:00,36.8,34.3,30.38,North,0,0.0,-999.0,90,0.00,,,-99.99,,2013-12-04 04:38:00,
2013-12-03 19:39:00,36.7,33.9,30.39,North,0,0.0,-999.0,89,0.00,,,-99.99,,2013-12-04 04:39:00,
2013-12-03 19:40:00,37.0,34.6,30.38,North,0,0.0,-999.0,90,0.00,,,-99.99,,2013-12-04 04:40:00,
2013-12-03 19:41:00,37.1,34.6,30.38,North,0,0.0,-999.0,90,0.00,,,-99.99,,2013-12-04 04:41:00,
2013-12-03 19:42:00,36.5,34.1,30.38,North,0,0.0,-999.0,90,0.00,,,-99.99,,2013-12-04 04:42:00,
2013-12-03 19:43:00,36.8,34.4,30.38,North,0,0.0,-999.0,90,0.00,,,-99.99,,2013-12-04 04:43:00,
2013-12-03 19:44:00,36.9,34.0,30.40,North,0,0.0,-999.0,89,0.00,,,-99.99,,2013-12-04 04:44:00,
2013-12-03 19:45:00,37.2,34.8,30.38,North,0,0.0,-999.0,90,0.00,,,-99.99,,2013-12-04 04:45:00,
2013-12-03 19:46:00,36.9,34.5,30.38,North,0,0.0,-999.0,90,0.00,,,-99.99,,2013-12-04 04:46:00,
2013-12-03 19:47:00,37.2,34.7,30.38,North,0,0.0,-999.0,90,0.00,,,-99.99,,2013-12-04 04:47:00,
2013-12-03 19:48:00,37.1,34.7,30.38,North,0,0.0,-999.0,90,0.00,,,-99.99,,2013-12-04 04:48:00,
2013-12-03 19:49:00,36.6,33.8,30.38,North,0,0.0,-999.0,89,0.00,,,-99.99,,2013-12-04 04:49:00,
2013-12-03 19:50:00,37.0,34.5,30.38,North,0,0.0,-999.0,90,0.00,,,-99.99,,2013-12-04 04:50:00,
2013-12-03 19:51:00,36.7,34.3,30.38,North,0,0.0,-999.0,90,0.00,,,-99.99,,2013-12-04 04:51:00,
2013-12-03 19:52:00,36.1,33.7,30.38,North,0,0.0,-999.0,91,0.00,,,-99.99,,2013-12-04 04:52:00,
2013-12-03 19:53:00,37.2,34.7,30.38,North,0,0.0,-999.0,90,0.00,,,-99.99,,2013-12-04 04:53:00,
2013-12-03 19:54:00,36.6,33.7,30.40,North,0,0.0,-999.0,89,0.00,,,-99.99,,2013-12-04 04:54:00,
2013-12-03 19:55:00,36.6,34.2,30.38,North,0,0.0,-999.0,91,0.00,,,-99.99,,2013-12-04 04:55:00,
2013-12-03 19:56:00,37.3,34.9,30.38,North,0,0.0,-999.0,91,0.00,,,-99.99,,2013-12-04 04:56:00,
2013-12-03 19:57:00,37.2,34.8,30.38,North,0,0.0,-999.0,90,0.00,,,-99.99,,2013-12-04 04:57:00,
2013-12-03 19:58:00,36.8,34.4,30.38,North,0,0.0,-999.0,90,0.00,,,-99.99,,2013-12-04 04:58:00,
2013-12-03 19:59:00,35.9,33.1,30.39,North,0,0.0,-999.0,89,0.00,,,-99.99,,2013-12-04 04:59:00,
2013-12-03 20:00:00,37.5,35.1,30.38,North,0,0.0,-999.0,90,0.00,,,-99.99,,2013-12-04 05:00:00,
2013-12-03 20:01:00,36.5,34.1,30.38,North,0,0.0,-999.0,90,0.00,,,-99.99,,2013-12-04 05:01:00,
2013-12-03 20:02:00,37.0,34.6,30.38,North,0,0.0,-999.0,90,0.00,,,-99.99,,2013-12-04 05:02:00,
2013-12-03 20:03:00,37.2,34.7,30.38,North,0,0.0,-999.0,90,0.00,,,-99.99,,2013-12-04 05:03:00,
2013-12-03 20:04:00,37.2,34.7,30.38,North,0,0.0,-999.0,90,0.00,,,-99.99,,2013-12-04 05:04:00,
2013-12-03 20:05:00,37.2,34.7,30.39,North,0,0.0,-999.0,90,0.00,,,-99.99,,2013-12-04 05:05:00,
2013-12-03 20:06:00,37.0,34.5,30.39,North,0,0.0,-999.0,90,0.00,,,-99.99,,2013-12-04 05:06:00,
2013-12-03 20:07:00,36.4,34.0,30.39,North,0,0.0,-999.0,90,0.00,,,-99.99,,2013-12-04 05:07:00,
2013-12-03 20:08:00,37.1,34.7,30.39,North,0,0.0,-999.0,90,0.00,,,-99.99,,2013-12-04 05:08:00,
2013-12-03 20:09:00,37.3,34.9,30.39,North,0,0.0,-999.0,90,0.00,,,-99.99,,2013-12-04 05:09:00,
2013-12-03 20:10:00,37.2,34.7,30.38,North,0,0.0,-999.0,90,0.00,,,-99.99,,2013-12-04 05:10:00,
2013-12-03 20:11:00,36.8,34.3,30.38,North,0,0.0,-999.0,90,0.00,,,-99.99,,2013-12-04 05:11:00,
2013-12-03 20:12:00,37.5,35.0,30.38,North,0,0.0,-999.0,90,0.00,,,-99.99,,2013-12-04 05:12:00,
2013-12-03 20:13:00,37.0,34.5,30.38,North,0,0.0,-999.0,90,0.00,,,-99.99,,2013-12-04 05:13:00,
2013-12-03 20:15:00,37.2,34.6,30.38,North,0,0.0,-999.0,90,0.00,,,-99.99,,2013-12-04 05:15:00,
2013-12-03 20:17:00,36.7,34.2,30.38,North,0,0.0,-999.0,90,0.00,,,-99.99,,2013-12-04 05:17:00,
2013-12-03 20:18:00,36.7,34.2,30.38,North,0,0.0,-999.0,90,0.00,,,-99.99,,2013-12-04 05:18:00,
2013-12-03 20:19:00,36.5,34.0,30.38,North,0,0.0,-999.0,90,0.00,,,-99.99,,2013-12-04 05:19:00,
2013-12-03 20:21:00,36.3,33.7,30.38,North,0,0.0,-999.0,90,0.00,,,-99.99,,2013-12-04 05:21:00,
2013-12-03 20:23:00,36.6,34.0,30.38,North,0,0.0,-999.0,90,0.00,,,-99.99,,2013-12-04 05:23:00,
2013-12-03 20:24:00,37.2,34.6,30.38,North,0,0.0,-999.0,90,0.00,,,-99.99,,2013-12-04 05:24:00,
2013-12-03 20:25:00,36.9,34.3,30.38,North,0,0.0,-999.0,90,0.00,,,-99.99,,2013-12-04 05:25:00,
2013-12-03 20:26:00,36.8,34.3,30.38,North,0,0.0,-999.0,90,0.00,,,-99.99,,2013-12-04 05:26:00,
2013-12-03 20:29:00,36.9,34.3,30.38,North,0,0.0,-999.0,90,0.00,,,-99.99,,2013-12-04 05:29:00,
2013-12-03 20:31:00,36.8,34.3,30.38,North,0,0.0,-999.0,90,0.00,,,-99.99,,2013-12-04 05:31:00,
2013-12-03 20:32:00,36.0,33.5,30.38,North,0,0.0,-999.0,90,0.00,,,-99.99,,2013-12-04 05:32:00,
2013-12-03 20:33:00,36.7,34.2,30.38,North,0,0.0,-999.0,90,0.00,,,-99.99,,2013-12-04 05:33:00,
2013-12-03 20:37:00,36.2,33.6,30.38,North,0,0.0,-999.0,90,0.00,,,-99.99,,2013-12-04 05:37:00,
2013-12-03 20:38:00,36.8,34.3,30.38,North,0,0.0,-999.0,90,0.00,,,-99.99,,2013-12-04 05:38:00,
2013-12-03 20:39:00,37.1,34.5,30.38,North,0,0.0,-999.0,90,0.00,,,-99.99,,2013-12-04 05:39:00,
2013-12-03 20:40:00,36.2,33.7,30.38,North,0,0.0,-999.0,90,0.00,,,-99.99,,2013-12-04 05:40:00,
2013-12-03 20:42:00,36.7,34.1,30.38,North,0,0.0,-999.0,90,0.00,,,-99.99,,2013-12-04 05:42:00,
2013-12-03 20:43:00,35.7,33.2,30.38,North,0,0.0,-999.0,90,0.00,,,-99.99,,2013-12-04 05:43:00,
2013-12-03 20:44:00,37.3,34.8,30.38,North,0,0.0,-999.0,90,0.00,,,-99.99,,2013-12-04 05:44:00,
2013-12-03 20:47:00,36.5,34.1,30.37,North,0,0.0,-999.0,90,0.00,,,-99.99,,2013-12-04 05:47:00,
2013-12-03 20:50:00,36.8,34.3,30.37,North,0,0.0,-999.0,90,0.00,,,-99.99,,2013-12-04 05:50:00,
2013-12-03 20:51:00,37.0,34.5,30.37,North,0,0.0,-999.0,90,0.00,,,-99.99,,2013-12-04 05:51:00,
2013-12-03 20:52:00,36.6,34.1,30.37,North,0,0.0,-999.0,90,0.00,,,-99.99,,2013-12-04 05:52:00,
2013-12-03 20:53:00,36.2,33.8,30.37,North,0,0.0,-999.0,90,0.00,,,-99.99,,2013-12-04 05:53:00,
2013-12-03 20:54:00,36.1,33.6,30.37,North,0,0.0,-999.0,90,0.00,,,-99.99,,2013-12-04 05:54:00,
2013-12-03 20:57:00,37.0,34.5,30.37,North,0,0.0,-999.0,90,0.00,,,-99.99,,2013-12-04 05:57:00,
2013-12-03 21:00:00,37.0,34.5,30.37,North,0,0.0,-999.0,90,0.00,,,-99.99,,2013-12-04 06:00:00,
2013-12-03 21:01:00,37.0,34.6,30.37,North,0,0.0,-999.0,90,0.00,,,-99.99,,2013-12-04 06:01:00,
2013-12-03 21:03:00,37.0,34.5,30.37,North,0,0.0,-999.0,90,0.00,,,-99.99,,2013-12-04 06:03:00,
2013-12-03 21:04:00,36.2,33.7,30.37,North,0,0.0,-999.0,90,0.00,,,-99.99,,2013-12-04 06:04:00,
2013-12-03 21:05:00,36.2,33.6,30.36,North,0,0.0,-999.0,90,0.00,,,-99.99,,2013-12-04 06:05:00,
2013-12-03 21:07:00,36.6,34.0,30.36,North,0,0.0,-999.0,90,0.00,,,-99.99,,2013-12-04 06:07:00,
2013-12-03 21:10:00,36.5,34.0,30.36,North,0,0.0,-999.0,90,0.00,,,-99.99,,2013-12-04 06:10:00,
2013-12-03 21:11:00,36.8,34.4,30.36,North,0,0.0,-999.0,90,0.00,,,-99.99,,2013-12-04 06:11:00,
2013-12-03 21:14:00,37.0,34.4,30.38,North,0,0.0,-999.0,90,0.00,,,-99.99,,2013-12-04 06:14:00,
2013-12-03 21:15:00,36.7,34.2,30.36,North,0,0.0,-999.0,90,0.00,,,-99.99,,2013-12-04 06:15:00,
2013-12-03 21:17:00,36.5,34.1,30.36,North,0,0.0,-999.0,90,0.00,,,-99.99,,2013-12-04 06:17:00,
2013-12-03 21:19:00,36.3,33.9,30.36,North,0,0.0,-999.0,90,0.00,,,-99.99,,2013-12-04 06:19:00,
2013-12-03 21:20:00,36.6,34.1,30.38,North,0,0.0,-999.0,90,0.00,,,-99.99,,2013-12-04 06:20:00,
2013-12-03 21:21:00,36.2,33.7,30.36,North,0,0.0,-999.0,90,0.00,,,-99.99,,2013-12-04 06:21:00,
2013-12-03 21:23:00,36.7,34.2,30.36,North,0,0.0,-999.0,90,0.00,,,-99.99,,2013-12-04 06:23:00,
2013-12-03 21:27:00,36.3,33.8,30.38,North,0,0.0,-999.0,90,0.00,,,-99.99,,2013-12-04 06:27:00,
2013-12-03 21:29:00,37.0,34.6,30.36,North,0,0.0,-999.0,90,0.00,,,-99.99,,2013-12-04 06:29:00,
2013-12-03 21:30:00,36.8,34.4,30.36,North,0,0.0,-999.0,90,0.00,,,-99.99,,2013-12-04 06:30:00,
2013-12-03 21:32:00,37.6,35.3,30.36,North,0,0.0,-999.0,91,0.00,,,-99.99,,2013-12-04 06:32:00,
2013-12-03 21:34:00,36.2,33.6,30.38,North,0,0.0,-999.0,90,0.00,,,-99.99,,2013-12-04 06:34:00,
2013-12-03 21:41:00,36.7,34.1,30.38,North,0,0.0,-999.0,90,0.00,,,-99.99,,2013-12-04 06:41:00,
2013-12-03 21:43:00,37.1,34.7,30.36,North,0,0.0,-999.0,90,0.00,,,-99.99,,2013-12-04 06:43:00,
2013-12-03 21:44:00,37.3,34.8,30.36,North,0,0.0,-999.0,90,0.00,,,-99.99,,2013-12-04 06:44:00,
2013-12-03 21:46:00,36.8,34.4,30.37,North,0,0.0,-999.0,90,0.00,,,-99.99,,2013-12-04 06:46:00,
2013-12-03 21:55:00,36.2,33.7,30.37,North,0,0.0,-999.0,90,0.00,,,-99.99,,2013-12-04 06:55:00,
2013-12-03 21:56:00,37.1,34.5,30.35,North,0,0.0,-999.0,90,0.00,,,-99.99,,2013-12-04 06:56:00,
2013-12-03 22:02:00,36.8,34.3,30.37,North,0,0.0,-999.0,90,0.00,,,-99.99,,2013-12-04 07:02:00,
2013-12-03 22:08:00,36.7,34.1,30.36,North,0,0.0,-999.0,90,0.00,,,-99.99,,2013-12-04 07:08:00,
2013-12-03 22:13:00,36.7,34.3,30.36,North,0,0.0,-999.0,90,0.00,,,-99.99,,2013-12-04 07:13:00,
2013-12-03 22:18:00,36.2,33.8,30.36,North,0,0.0,-999.0,90,0.00,,,-99.99,,2013-12-04 07:18:00,
2013-12-03 22:24:00,36.6,34.2,30.36,North,0,0.0,-999.0,90,0.00,,,-99.99,,2013-12-04 07:24:00,
2013-12-03 22:31:00,37.0,34.7,30.36,North,0,0.0,-999.0,91,0.00,,,-99.99,,2013-12-04 07:31:00,
2013-12-03 22:36:00,37.2,34.8,30.36,North,0,0.0,-999.0,91,0.00,,,-99.99,,2013-12-04 07:36:00,
2013-12-03 22:41:00,36.5,34.1,30.36,North,0,0.0,-999.0,90,0.00,,,-99.99,,2013-12-04 07:41:00,
2013-12-03 22:46:00,37.0,34.5,30.36,North,0,0.0,-999.0,90,0.00,,,-99.99,,2013-12-04 07:46:00,
2013-12-03 22:51:00,37.8,35.1,30.35,North,0,0.0,-999.0,90,0.00,,,-99.99,,2013-12-04 07:51:00,
2013-12-03 22:57:00,37.0,34.5,30.35,North,0,0.0,-999.0,90,0.00,,,-99.99,,2013-12-04 07:57:00,
2013-12-03 23:02:00,37.1,34.4,30.36,North,0,0.0,-999.0,89,0.00,,,-99.99,,2013-12-04 08:02:00,
2013-12-03 23:07:00,37.6,34.8,30.35,North,0,0.0,-999.0,89,0.00,,,-99.99,,2013-12-04 08:07:00,
2013-12-03 23:12:00,37.1,34.1,30.36,North,0,0.0,-999.0,88,0.00,,,-99.99,,2013-12-04 08:12:00,
2013-12-03 23:17:00,37.5,34.5,30.35,North,0,0.0,-999.0,88,0.00,,,-99.99,,2013-12-04 08:17:00,
2013-12-03 23:22:00,37.9,34.9,30.35,North,0,0.0,-999.0,88,0.00,,,-99.99,,2013-12-04 08:22:00,
2013-12-03 23:29:00,37.4,34.4,30.36,North,0,0.0,-999.0,88,0.00,,,-99.99,,2013-12-04 08:29:00,
2013-12-03 23:34:00,38.1,35.2,30.35,North,0,0.0,-999.0,89,0.00,,,-99.99,,2013-12-04 08:34:00,
2013-12-03 23:39:00,37.8,34.9,30.34,North,0,0.0,-999.0,88,0.00,,,-99.99,,2013-12-04 08:39:00,
2013-12-03 23:46:00,37.9,34.9,30.35,North,0,0.0,-999.0,88,0.00,,,-99.99,,2013-12-04 08:46:00,
2013-12-03 23:51:00,37.6,34.7,30.35,North,0,0.0,-999.0,89,0.00,,,-99.99,,2013-12-04 08:51:00,
2013-12-03 23:56:00,37.8,34.8,30.35,North,0,0.0,-999.0,88,0.00,,,-99.99,,2013-12-04 08:56:00,